Regional Weather Roundup
Issued by NWS New Orleans/Baton Rouge, LA

Home | Current Version | Previous Version | Text Only | Print | Product List | Glossary Off
Versions: 1 2 3 4 5 6 7 8 9 10 11 12 13 14 15 16 17 18 19 20 21 22 23 24 25 26 27 28 29 30 31 32 33 34 35 36 37 38 39 40 41 42 43 44 45 46 47 48 49 50

340
ASUS44 KLIX 291905
RWRLIX
NEW ORLEANS REGIONAL WEATHER ROUNDUP
NATIONAL WEATHER SERVICE NEW ORLEANS LA
100 PM CST THU JAN 29 2015

NOTE: "FAIR" INDICATES FEW OR NO CLOUDS BELOW 12,000 FEET WITH NO
      SIGNIFICANT WEATHER AND/OR OBSTRUCTIONS TO VISIBILITY.
      SKY/WX - SKY CONDITION AND SIGNIFICANT WEATHER.
      TMP - AIR TEMPERATURE.     DP    - DEWPOINT TEMPERATURE.
      RH  - RELATIVE HUMIDITY.   PRES  - PRESSURE.
      HI  - HEAT INDEX.          WCI   - WIND CHILL INDEX.

*  THESE STATIONS ARE NOT NWS OR FAA STATIONS AND ARE NOT UNDER
   NWS QUALITY CONTROL.

LAZ038-040-048-061>063-065>067-069-292000-
SOUTHEAST LOUISIANA

CITY           SKY/WX    TMP DP  RH WIND       PRES   REMARKS
N.O. AUDUBON   NOT AVBL
N.O. INTL ARPT MOSUNNY   73  56  54 W12       30.22F
N.O. LAKEFRONT MOSUNNY   70  54  56 N6        30.24F
N.O. DOWNTOWN* NOT AVBL
SLIDELL        MOSUNNY   72  55  55 SW8       30.22F
BATON ROUGE    SUNNY     76  54  46 SW15G21   30.20F
BOOTHVILLE     SUNNY     69  56  62 S9        30.25F
BELLE CHASSE   PTSUNNY   74  56  53 S12       30.22F
BOGALUSA*        N/A     76  53  44 W9G16     30.22F
GALLIANO*      PTCLDY    75  58  54 S8        30.24F
NEW ROADS*       N/A     73  54  51 SW10      30.20F
GONZALES*        N/A     74  57  54 W9G17     30.21F
HAMMOND*       SUNNY     75  54  46 SW7       30.22F
HOUMA*         MOSUNNY   75  59  57 SW7       30.23F
PORT FOURCHON* MOCLDY    72  59  64 S7        30.27F

$$

MSZ070-080>082-292000-
SOUTHERN MISSISSIPPI

CITY           SKY/WX    TMP DP  RH WIND       PRES   REMARKS
MCCOMB         SUNNY     73  54  51 W12       30.19F
GULFPORT       SUNNY     68  52  56 S8        30.23F
BILOXI         SUNNY     69  53  57 SW9       30.24F
PASCAGOULA     SUNNY     69  53  56 SW9       30.24F
STENNIS ARPT*  MOSUNNY   72  48  43 S12       30.23F

$$

COASTAL OBSERVATIONS
LAKE AND NEARSHORE STATIONS

STATION/POSITION TIME  TEMP    WIND        PRES    WAVE
                       AIR SEA DIR/SP/G            HT/PER
                 (UTC) (F)     (DEG/KT/KT) (MB)    (FT/S)
PASCAGOULA       1900   65     180/  5/  7 1023.6
WAVELAND YACHT   1900   62     160/  8/ 10 1023.0
GRAND ISLE       1900   68 62  160/  5/  9 1024.5
SOUTHWEST PASS   1900   75 46  160/  6/  7 1024.2
NEW CANAL        1900   58 54   30/  3/  4 1024.1
SHELL BEACH      1900   69 56  230/  7/ 14 1023.7

OFFSHORE STATIONS

STATION/POSITION TIME  TEMP    WIND        PRES    WAVE
                       AIR SEA DIR/SP/G            HT/PER
                 (UTC) (F)     (DEG/KT/KT) (MB)    (FT/S)
64 S DAUPHIN ISL 1811   67 69  190/ 10/ 12 1024.4    2/ 5

$$




USA.gov is the U.S. government's official web portal to all federal, state and local government web resources and services.